Location: Unspecified
(40.7945°N, 0.0000°E)
Time: 06:37:30
(UTC+00:00)

Explorer 7 - Pass Details

Date: 24 January 2021
Orbit: 484 x 677 km, 50.3° (Epoch: 28 February)

Event Time Altitude Azimuth Distance (km) Brightness Sun altitude
Rises 11:09:43 0° 298° (WNW) 2,766 10.0 28.4°
Reaches altitude 10° 11:12:01 10° 290° (WNW) 1,900 9.3 28.5°
Maximum altitude 11:16:03 37° 222° (SW) 942 8.7 28.7°
Drops below altitude 10° 11:20:17 10° 155° (SSE) 2,002 11.3 28.9°
Sets 11:22:47 0° 148° (SSE) 2,936 11.6 29.0°
